• In Germany
  • List of Countries
  • For 7 days
  • Water Temperature
  • Satellite Maps
  • Weather Map
  • Weather Widgets
  • user-avatar
    Login

    Hourly Weather Zambrów

    Today, 23 October, Monday

    Time Temperature Precipitation Wind Pressure Humidity
    00:00 +5°C° 0.1 mm 3 mps 748 mmHg 86%
    01:00 +5°C° 0.1 mm 3 mps 748 mmHg 87%
    02:00 +5°C° 0.1 mm 3 mps 748 mmHg 87%
    03:00 +5°C° 0.1 mm 3 mps 747 mmHg 88%
    04:00 +5°C° 0.1 mm 3 mps 747 mmHg 89%
    05:00 +4°C° 0.1 mm 3 mps 747 mmHg 89%
    06:00 +4°C° 0.1 mm 3 mps 747 mmHg 89%
    07:00 +4°C° 0.1 mm 3 mps 747 mmHg 89%
    08:00 +5°C° 0.2 mm 3 mps 748 mmHg 87%
    09:00 +5°C° 0.2 mm 3 mps 748 mmHg 86%
    10:00 +5°C° 0.2 mm 3 mps 748 mmHg 85%
    11:00 +7°C° 0.2 mm 3 mps 748 mmHg 84%
    12:00 +7°C° 0.2 mm 3 mps 748 mmHg 83%
    13:00 +7°C° 0.2 mm 3 mps 749 mmHg 81%
    14:00 +7°C° 0.2 mm 3 mps 749 mmHg 82%
    15:00 +7°C° 0.2 mm 3 mps 749 mmHg 83%
    16:00 +5°C° 0.2 mm 3 mps 749 mmHg 83%
    17:00 +5°C° 0.1 mm 3 mps 750 mmHg 83%
    18:00 +5°C° 0.1 mm 3 mps 750 mmHg 83%
    19:00 +4°C° 0.1 mm 3 mps 751 mmHg 83%
    20:00 +4°C° 0 mm 3 mps 751 mmHg 82%
    21:00 +4°C° 0 mm 3 mps 752 mmHg 81%
    22:00 +3°C° 0 mm 3 mps 752 mmHg 80%
    23:00 +3°C° 0 mm 3 mps 753 mmHg 80%

    Tomorrow, 24 October, Tuesday

    Time Temperature Precipitation Wind Pressure Humidity
    00:00 +3°C° 0 mm 3 mps 753 mmHg 79%
    01:00 +2°C° 0 mm 3 mps 754 mmHg 79%
    02:00 +2°C° 0 mm 3 mps 754 mmHg 80%
    03:00 +2°C° 0 mm 3 mps 755 mmHg 81%
    04:00 +1°C° 0 mm 3 mps 755 mmHg 82%
    05:00 +1°C° 0 mm 3 mps 755 mmHg 83%
    06:00 +1°C° 0 mm 3 mps 756 mmHg 84%
    07:00 0°C° 0 mm 3 mps 757 mmHg 85%
    08:00 +2°C° 0 mm 3 mps 757 mmHg 80%
    09:00 +3°C° 0 mm 3 mps 757 mmHg 74%
    10:00 +4°C° 0 mm 3 mps 758 mmHg 68%
    11:00 +5°C° 0 mm 3 mps 758 mmHg 65%
    12:00 +7°C° 0 mm 3 mps 758 mmHg 61%
    13:00 +8°C° 0 mm 3 mps 758 mmHg 58%
    14:00 +7°C° 0 mm 2 mps 758 mmHg 61%
    15:00 +6°C° 0 mm 2 mps 758 mmHg 64%
    16:00 +6°C° 0 mm 2 mps 758 mmHg 67%
    17:00 +5°C° 0 mm 2 mps 758 mmHg 70%
    18:00 +4°C° 0 mm 2 mps 759 mmHg 72%
    19:00 +3°C° 0 mm 2 mps 759 mmHg 75%
    20:00 +2°C° 0 mm 3 mps 759 mmHg 76%
    21:00 +2°C° 0 mm 3 mps 759 mmHg 77%
    22:00 +2°C° 0 mm 3 mps 759 mmHg 78%
    23:00 +2°C° 0 mm 3 mps 759 mmHg 78%

    Day after tomorrow, 25 October, Wednesday

    Time Temperature Precipitation Wind Pressure Humidity
    00:00 +2°C° 0 mm 3 mps 759 mmHg 79%
    01:00 +1°C° 0 mm 3 mps 759 mmHg 79%
    02:00 +1°C° 0 mm 3 mps 759 mmHg 79%
    03:00 +1°C° 0 mm 3 mps 759 mmHg 80%
    04:00 +1°C° 0 mm 3 mps 759 mmHg 80%
    05:00 +1°C° 0 mm 3 mps 759 mmHg 80%
    06:00 0°C° 0 mm 4 mps 759 mmHg 80%
    07:00 0°C° 0 mm 4 mps 759 mmHg 79%
    08:00 +1°C° 0 mm 4 mps 758 mmHg 74%
    09:00 +2°C° 0 mm 5 mps 758 mmHg 69%
    10:00 +5°C° 0 mm 5 mps 758 mmHg 63%
    11:00 +5°C° 0.7 mm 5 mps 758 mmHg 65%
    12:00 +3°C° 0.7 mm 5 mps 757 mmHg 67%
    13:00 +3°C° 0.7 mm 5 mps 757 mmHg 69%
    14:00 +3°C° 0.6 mm 6 mps 756 mmHg 73%
    15:00 +3°C° 0.6 mm 6 mps 756 mmHg 76%
    16:00 +3°C° 0.6 mm 6 mps 755 mmHg 80%
    17:00 +4°C° 0.1 mm 6 mps 755 mmHg 80%
    18:00 +4°C° 0.1 mm 6 mps 754 mmHg 81%
    19:00 +4°C° 0.1 mm 6 mps 754 mmHg 82%
    20:00 +5°C° 0.4 mm 6 mps 754 mmHg 84%
    21:00 +5°C° 0.4 mm 6 mps 753 mmHg 86%
    22:00 +6°C° 0.4 mm 5 mps 753 mmHg 88%
    23:00 +7°C° 0.5 mm 5 mps 753 mmHg 90%

    26 October, Thursday

    Time Temperature Precipitation Wind Pressure Humidity
    00:00 +7°C° 0.5 mm 4 mps 753 mmHg 93%
    01:00 +8°C° 0.5 mm 4 mps 752 mmHg 96%
    02:00 +9°C° 0 mm 3 mps 752 mmHg 96%
    03:00 +9°C° 0 mm 3 mps 752 mmHg 97%
    04:00 +9°C° 0 mm 3 mps 752 mmHg 97%
    05:00 +9°C° 0 mm 3 mps 752 mmHg 97%
    06:00 +9°C° 0 mm 3 mps 752 mmHg 97%
    07:00 +9°C° 0 mm 3 mps 752 mmHg 97%
    08:00 +10°C° 0 mm 4 mps 752 mmHg 94%
    09:00 +9°C° 0 mm 5 mps 752 mmHg 91%
    10:00 +10°C° 0 mm 5 mps 752 mmHg 87%
    11:00 +12°C° 0 mm 5 mps 752 mmHg 85%
    12:00 +12°C° 0 mm 5 mps 751 mmHg 82%
    13:00 +12°C° 0 mm 5 mps 751 mmHg 80%
    14:00 +12°C° 0 mm 5 mps 751 mmHg 81%
    15:00 +12°C° 0 mm 4 mps 750 mmHg 82%
    16:00 +11°C° 0 mm 4 mps 750 mmHg 84%
    17:00 +11°C° 0.1 mm 4 mps 750 mmHg 86%
    18:00 +10°C° 0.1 mm 4 mps 750 mmHg 89%
    19:00 +10°C° 0.1 mm 4 mps 749 mmHg 92%
    20:00 +8°C° 0 mm 4 mps 749 mmHg 92%
    21:00 +8°C° 0 mm 4 mps 749 mmHg 92%
    22:00 +8°C° 0 mm 4 mps 749 mmHg 92%
    23:00 +8°C° 0 mm 4 mps 748 mmHg 93%

    27 October, Friday

    Time Temperature Precipitation Wind Pressure Humidity
    00:00 +8°C° 0 mm 4 mps 748 mmHg 94%
    01:00 +8°C° 0 mm 3 mps 748 mmHg 95%
    02:00 +8°C° 0 mm 3 mps 747 mmHg 95%
    03:00 +8°C° 0 mm 3 mps 746 mmHg 95%
    04:00 +8°C° 0 mm 3 mps 746 mmHg 96%
    05:00 +8°C° 0 mm 3 mps 745 mmHg 95%
    06:00 +8°C° 0 mm 3 mps 745 mmHg 95%
    07:00 +7°C° 0 mm 4 mps 745 mmHg 95%
    08:00 +8°C° 0.1 mm 4 mps 744 mmHg 91%
    09:00 +9°C° 0.1 mm 5 mps 744 mmHg 87%
    10:00 +9°C° 0.1 mm 5 mps 743 mmHg 83%
    11:00 +9°C° 0.3 mm 6 mps 743 mmHg 80%
    12:00 +9°C° 0.3 mm 6 mps 742 mmHg 78%
    13:00 +10°C° 0.3 mm 6 mps 742 mmHg 75%
    14:00 +9°C° 0.2 mm 6 mps 741 mmHg 77%
    15:00 +9°C° 0.2 mm 5 mps 741 mmHg 79%
    16:00 +8°C° 0.2 mm 4 mps 740 mmHg 81%
    17:00 +8°C° 0 mm 4 mps 740 mmHg 83%
    18:00 +7°C° 0 mm 4 mps 740 mmHg 85%
    19:00 +7°C° 0 mm 4 mps 740 mmHg 87%
    20:00 +7°C° 0.1 mm 5 mps 739 mmHg 88%
    21:00 +7°C° 0.1 mm 5 mps 739 mmHg 89%
    22:00 +7°C° 0.1 mm 5 mps 739 mmHg 90%
    23:00 +7°C° 0.1 mm 5 mps 739 mmHg 88%

    28 October, Saturday

    Time Temperature Precipitation Wind Pressure Humidity
    00:00 +7°C° 0.1 mm 5 mps 739 mmHg 87%
    01:00 +7°C° 0.1 mm 5 mps 738 mmHg 86%
    02:00 +7°C° 0 mm 5 mps 738 mmHg 88%
    03:00 +6°C° 0 mm 5 mps 738 mmHg 90%
    04:00 +6°C° 0 mm 4 mps 738 mmHg 92%
    05:00 +6°C° 0 mm 4 mps 738 mmHg 92%
    06:00 +6°C° 0 mm 4 mps 738 mmHg 91%
    07:00 +5°C° 0 mm 4 mps 738 mmHg 91%
    08:00 +6°C° 0.2 mm 4 mps 738 mmHg 87%
    09:00 +7°C° 0.2 mm 5 mps 738 mmHg 83%
    10:00 +7°C° 0.2 mm 5 mps 737 mmHg 78%
    11:00 +7°C° 0.3 mm 5 mps 737 mmHg 79%
    12:00 +7°C° 0.3 mm 5 mps 737 mmHg 80%
    13:00 +7°C° 0.3 mm 5 mps 737 mmHg 81%
    14:00 +7°C° 0.1 mm 4 mps 737 mmHg 82%
    15:00 +8°C° 0.1 mm 3 mps 737 mmHg 83%
    16:00 +8°C° 0.1 mm 2 mps 737 mmHg 84%
    17:00 +7°C° 0 mm 2 mps 738 mmHg 86%
    18:00 +7°C° 0 mm 2 mps 738 mmHg 88%
    19:00 +6°C° 0 mm 2 mps 738 mmHg 91%
    20:00 +6°C° 0 mm 2 mps 739 mmHg 91%
    21:00 +6°C° 0 mm 2 mps 739 mmHg 92%
    22:00 +7°C° 0 mm 1 mps 740 mmHg 93%
    23:00 +5°C° 0 mm 2 mps 740 mmHg 93%

    29 October, Sunday

    Time Temperature Precipitation Wind Pressure Humidity
    00:00 +5°C° 0 mm 2 mps 741 mmHg 93%
    01:00 +5°C° 0 mm 2 mps 741 mmHg 94%
    02:00 +5°C° 0 mm 2 mps 741 mmHg 94%
    03:00 +5°C° 0 mm 2 mps 742 mmHg 95%
    04:00 +4°C° 0 mm 2 mps 742 mmHg 95%
    05:00 +5°C° 0 mm 2 mps 743 mmHg 95%
    06:00 +5°C° 0 mm 2 mps 743 mmHg 94%
    07:00 +4°C° 0 mm 3 mps 743 mmHg 94%
    08:00 +5°C° 0 mm 3 mps 744 mmHg 89%
    09:00 +7°C° 0 mm 3 mps 744 mmHg 85%
    10:00 +8°C° 0 mm 3 mps 744 mmHg 81%
    11:00 +7°C° 0 mm 4 mps 744 mmHg 79%
    12:00 +7°C° 0 mm 4 mps 744 mmHg 77%
    13:00 +8°C° 0 mm 5 mps 743 mmHg 75%
    14:00 +8°C° 0 mm 5 mps 743 mmHg 77%
    15:00 +7°C° 0 mm 5 mps 743 mmHg 78%
    16:00 +7°C° 0 mm 5 mps 742 mmHg 80%
    17:00 +7°C° 0 mm 5 mps 742 mmHg 81%
    18:00 +5°C° 0 mm 6 mps 741 mmHg 82%
    19:00 +5°C° 0 mm 6 mps 741 mmHg 84%
    20:00 +7°C° 0.2 mm 6 mps 740 mmHg 85%
    21:00 +7°C° 0.2 mm 6 mps 739 mmHg 86%
    22:00 +7°C° 0.2 mm 6 mps 739 mmHg 87%
    23:00 +6°C° 0.2 mm 7 mps 738 mmHg 86%
    Show more